Temp
5 5 5 5 5 6 6 10 7 9 8 10 8 8 10 7 11 12 11 12 12 12 12 11 12 11 12 12 12 11 12 11 12 14 15 16 14 10 10 11 12 15 16 19
4 5 5 5 5 6 9 10 10 9 9 9 7 8 7 10 11 11 11 11 12 12 11 9 11 12 13 12 12 10 11 10 11 14 15 15 13 11 11 10 9 11 13 17
4 5 5 5 5 5 7 9 5 6 10 11 11 9 8 8 11 11 11 11 12 11 10 12 10 12 13 13 13 9 10 11 11 11 11 12 13 15 14 11 11 13 14 15
4 4 4 5 5 5 6 6 6 10 6 8 10 10 10 10 10 11 11 11 11 11 8 8 10 12 12 13 10 12 10 9 12 12 13 13 13 14 14 14 14 13 15 16
4 4 4 4 5 5 8 4 8 10 11 10 10 8 7 10 11 10 10 10 11 11 10 10 9 11 11 11 12 12 11 8 10 8 12 13 13 14 14 15 15 15 16 16
4 4 4 4 4 5 7 8 9 10 9 10 10 10 10 9 10 10 11 11 10 10 10 10 11 11 11 11 11 10 10 9 8 8 12 12 10 13 14 15 15 16 15 17
4 4 4 4 4 5 6 7 10 8 7 10 10 10 10 10 10 10 11 11 10 11 11 11 11 11 11 11 11 12 10 9 8 8 10 9 13 15 15 14 15 16 16 17
3 4 3 4 4 4 5 5 8 7 6 10 10 10 10 10 11 10 10 11 11 11 10 8 7 8 6 7 10 11 12 10 7 8 10 12 13 15 14 14 14 16 16 17
3 3 3 3 4 4 5 5 5 6 4 8 10 10 10 10 10 9 10 11 10 10 9 8 6 8 9 8 10 12 11 11 8 9 8 9 14 15 16 15 12 16 16 16
3 3 3 3 3 3 4 4 4 5 4 8 8 9 9 10 10 9 9 9 8 9 6 6 7 8 11 9 10 9 9 7 7 9 9 11 14 15 15 11 12 14 14 14
2 2 2 2 2 2 3 5 4 5 4 6 7 8 8 9 9 7 9 7 8 7 6 7 8 8 9 10 11 11 10 10 9 8 8 9 14 14 11 13 14 14 14 14
2 2 2 2 2 2 2 4 5 4 4 5 6 5 6 7 9 8 8 7 9 8 7 7 8 8 8 9 8 12 10 11 10 10 10 13 13 13 14 14 13 13 12 13
2 2 1 1 1 2 2 4 4 3 3 4 6 7 7 6 6 7 6 7 8 8 9 6 7 6 9 8 10 10 11 12 10 10 11 12 13 13 14 13 13 13 13 13
2 1 1 1 1 1 1 3 3 3 4 3 6 6 7 7 7 6 6 7 8 8 7 5 5 6 9 8 9 9 10 10 9 9 11 12 12 13 13 13 13 12 12 12
2 1 1 1 1 1 2 2 3 3 4 4 5 6 7 7 7 7 7 7 7 6 4 5 5 8 7 8 8 8 10 10 9 9 12 11 12 13 13 13 12 12 10 10
1 1 1 1 1 1 1 1 2 2 2 3 4 7 7 7 7 7 7 7 6 4 4 5 7 8 7 5 8 11 12 12 12 12 13 13 13 13 13 11 11 11 10 10
1 1 1 1 1 2 3 4 2 2 1 2 4 6 8 7 6 6 5 5 3 4 3 4 6 7 5 6 7 10 12 12 12 13 12 11 11 11 12 11 11 10 9 8
1 1 1 1 1 2 2 1 1 1 0 2 4 5 7 7 4 3 5 4 3 2 3 5 5 7 6 5 9 11 12 13 13 13 12 11 11 11 11 10 9 8 8 8
0 0 0 1 1 1 3 3 2 1 1 3 5 6 7 7 7 6 5 4 4 7 4 6 6 7 7 9 11 12 12 12 12 12 11 10 10 8 8 8 7 6 5 5
0 0 2 1 2 1 2 1 1 1 3 1 3 8 7 8 7 6 6 5 6 6 7 9 6 8 11 12 13 13 13 12 11 9 8 7 6 6 6 5 5 4 4 3
1 2 2 1 1 2 3 2 3 4 3 5 5 6 7 9 6 6 8 7 8 7 10 8 9 10 11 13 13 13 12 11 10 9 7 6 6 6 5 4 4 4 3 2
2 2 2 1 2 3 3 4 6 4 6 8 6 5 7 7 7 6 7 7 8 7 9 8 9 11 12 12 12 11 11 10 9 8 7 6 6 5 4 3 3 2 1 0
1 3 3 3 4 2 4 4 6 7 8 8 7 6 6 5 6 5 7 6 7 10 7 9 11 11 12 12 10 10 9 9 7 8 6 6 5 3 2 2 1 0 0 0
3 3 1 3 3 4 6 8 9 8 8 8 8 6 6 5 5 6 5 8 8 7 8 10 10 10 10 10 10 10 9 8 6 6 6 3 1 1 1 1 0 -0 0 0
3 3 2 3 6 6 6 7 6 7 7 8 7 8 7 7 6 7 8 6 7 9 10 9 8 9 9 9 9 9 8 5 5 5 5 2 2 1 1 0 0 -0 -0 0
2 4 3 4 4 4 4 4 6 8 7 7 8 7 6 6 8 8 7 8 9 10 7 7 8 8 8 8 8 7 7 6 6 5 4 3 2 2 1 1 0 -0 -1 -0
3 3 3 4 4 3 5 6 7 7 6 6 7 5 6 8 7 8 9 8 6 5 5 6 7 7 7 8 8 7 6 6 5 5 4 4 3 4 4 3 1 -0 -0 -1
Height
813 813 814 815 815 814 813 808 813 807 807 802 808 807 800 808 793 793 791 787 779 774 770 771 764 763 761 765 760 757 752 750 733 714 716 711 723 742 742 734 733 704 703 688
811 811 812 813 813 813 811 806 806 806 806 801 810 809 809 802 795 790 789 785 780 779 775 785 774 765 764 767 762 769 758 759 739 715 715 716 725 737 739 745 752 734 720 695
809 809 810 811 812 812 813 810 815 813 805 800 794 799 804 806 796 795 791 788 783 779 782 775 778 765 763 763 761 772 767 757 747 741 747 737 726 719 721 737 741 718 714 701
807 808 808 809 810 811 813 813 811 801 809 805 795 795 796 795 793 793 789 784 781 780 792 790 781 769 764 761 765 761 767 768 747 741 734 733 727 721 716 713 711 719 709 697
804 806 806 807 808 810 810 815 807 800 791 795 795 800 806 793 787 789 792 785 781 782 784 779 782 773 770 768 760 758 765 771 758 764 740 727 722 718 715 711 707 706 700 696
800 802 804 805 806 808 808 807 804 799 795 789 789 788 788 792 790 792 788 786 787 786 782 781 777 777 773 769 766 763 765 770 769 758 732 730 738 720 706 705 702 700 697 688
797 799 801 803 804 805 807 806 801 802 798 786 786 786 788 788 786 787 785 785 784 781 782 781 777 771 765 760 756 754 759 762 770 759 749 747 710 703 705 708 702 697 693 687
793 795 798 800 801 803 805 806 805 804 800 787 783 785 786 785 784 784 782 782 784 784 783 785 782 772 776 767 758 749 747 752 766 759 737 719 708 698 701 701 698 689 687 685
788 791 794 796 799 801 803 804 806 806 808 790 782 782 781 781 780 781 779 780 786 787 784 784 786 769 762 763 752 744 745 749 758 749 747 730 699 697 699 702 706 682 686 688
784 787 790 793 796 798 801 801 803 804 804 792 789 785 785 781 780 782 781 781 785 785 787 784 776 764 750 751 744 746 751 759 757 744 739 718 701 698 698 715 706 697 698 697
779 783 786 789 793 795 798 798 799 801 798 791 791 788 786 781 781 784 781 787 779 786 788 777 768 766 753 746 738 737 736 738 738 742 736 726 703 704 716 707 703 700 698 697
774 778 782 786 789 793 796 797 797 798 798 790 788 787 785 784 783 782 785 785 776 778 781 775 770 763 762 750 751 733 736 730 732 731 724 707 707 707 706 703 702 702 700 697
769 774 778 782 786 789 792 793 794 796 795 787 779 774 775 777 779 781 782 779 780 781 779 782 775 773 757 751 736 729 725 723 724 724 716 710 706 705 703 702 699 698 696 693
766 770 774 779 783 786 789 791 792 794 793 789 770 770 769 770 772 773 777 778 778 779 781 782 776 770 758 751 742 738 733 730 727 721 713 709 706 702 699 696 694 693 690 689
762 767 771 775 779 783 787 788 788 790 792 779 772 769 764 763 766 767 770 772 775 777 782 775 769 761 760 752 743 732 725 722 722 712 705 705 700 696 694 690 688 687 687 684
758 764 768 773 777 781 785 785 784 785 789 788 773 762 760 759 760 761 764 767 771 777 775 770 761 757 758 753 731 716 712 708 705 701 696 694 692 689 687 687 686 684 683 681
755 760 765 770 774 778 779 777 779 780 786 789 773 758 753 757 759 762 763 767 772 773 773 767 757 752 761 747 730 706 707 705 699 694 692 693 690 689 687 686 681 681 681 678
754 759 764 770 774 777 776 779 780 781 786 785 773 757 750 753 760 763 764 766 770 771 766 756 752 748 746 739 712 705 698 695 691 689 690 690 688 685 682 684 682 679 675 671
754 759 764 770 773 774 772 774 778 782 785 772 762 751 741 749 748 753 757 760 759 750 752 745 742 732 725 706 699 693 692 689 689 691 692 690 689 690 687 685 683 680 675 671
753 759 760 763 764 767 771 777 778 780 776 773 758 743 738 742 744 745 746 748 742 731 725 722 728 711 699 692 690 689 690 692 694 694 692 695 694 691 687 686 683 679 674 670
749 751 754 758 762 766 765 764 765 762 759 749 741 741 738 737 744 741 735 733 725 722 703 711 700 687 685 684 687 689 692 694 696 698 698 698 695 691 687 682 679 675 672 669
742 745 751 758 759 757 755 746 738 743 732 718 729 734 734 738 742 742 734 730 718 713 705 710 693 683 681 684 689 692 694 695 696 697 697 695 693 691 688 683 678 674 670 666
742 744 746 744 746 746 737 729 716 714 710 714 721 729 732 739 740 739 729 728 713 699 708 694 678 680 683 686 692 694 695 696 697 695 695 693 692 692 689 683 678 673 668 665
733 736 740 735 731 722 708 703 698 706 705 708 714 723 728 732 734 725 723 707 702 700 693 680 684 689 690 692 693 693 695 696 699 696 694 695 695 691 687 682 678 672 668 665
728 727 724 720 711 708 709 708 712 712 711 710 713 714 717 717 720 711 705 708 699 681 674 682 691 692 692 693 693 693 695 697 697 697 694 693 692 689 685 681 677 673 669 667
726 718 715 711 712 714 717 717 713 710 712 712 711 709 711 712 701 698 696 685 678 672 690 696 697 697 698 697 696 696 696 696 694 694 692 690 688 687 684 681 678 674 671 668
716 713 713 712 711 712 710 711 709 712 713 709 706 714 704 694 694 687 677 683 695 700 701 701 700 701 699 696 695 695 695 693 693 691 690 688 686 683 679 678 677 675 672 670
Wind_Speed
5 4 4 5 4 3 3 4 1 2 5 0 2 2 3 3 5 4 6 6 8 8 13 8 10 10 12 10 16 14 8 6 11 9 7 4 10 4 3 3 5 9 9 15
5 5 6 6 5 3 6 0 3 2 4 2 2 3 1 5 6 4 4 6 4 10 9 5 10 14 7 9 15 10 9 3 8 4 5 1 5 2 3 3 3 5 5 7
5 5 6 6 6 3 3 2 1 3 3 3 3 3 3 3 5 8 6 8 9 8 8 8 8 13 5 12 12 6 5 8 10 10 7 7 12 12 7 7 4 10 9 17
6 5 6 7 6 4 4 2 3 1 2 3 6 4 5 8 5 5 6 6 8 8 2 8 9 15 15 14 4 5 5 6 14 15 18 17 18 17 16 16 14 13 17 23
9 7 7 8 8 6 6 3 3 4 5 3 7 4 4 8 7 5 8 8 10 7 10 13 14 16 15 15 14 10 5 5 14 15 17 17 17 17 18 19 19 19 21 22
12 11 8 10 10 10 2 5 2 4 3 5 6 7 8 5 2 6 9 9 9 12 14 11 15 16 17 18 18 16 14 9 8 14 12 13 13 17 14 16 18 19 20 21
13 13 12 10 12 15 3 8 5 2 5 7 7 6 7 9 10 11 11 12 14 14 7 15 15 16 19 19 19 17 16 13 8 9 13 12 6 4 9 13 16 17 18 17
15 13 13 12 10 14 8 4 5 3 5 9 9 10 11 11 12 13 14 11 11 11 10 8 7 6 3 4 9 8 11 11 5 5 10 15 18 10 5 12 14 13 13 12
19 16 14 12 11 11 12 10 8 3 1 7 10 9 11 9 8 9 11 8 4 5 6 7 7 8 11 4 3 5 6 8 8 9 8 7 2 5 7 8 13 4 7 8
22 20 17 15 13 12 12 5 13 6 3 11 14 9 7 7 7 6 10 3 4 4 3 7 10 12 14 9 9 4 4 4 11 12 12 10 9 11 12 9 9 18 15 17
22 20 21 19 15 14 12 10 9 12 3 11 16 14 12 11 8 8 4 5 7 4 4 4 5 5 7 8 12 9 11 9 9 6 8 13 8 8 8 13 21 23 23 24
22 19 19 20 19 18 13 13 12 12 9 8 8 13 18 24 23 11 7 8 3 4 3 3 3 6 5 11 13 17 13 13 11 15 11 24 22 21 21 19 19 21 22 21
22 21 19 18 18 17 17 13 6 5 3 10 18 15 24 25 26 22 11 10 14 13 11 6 5 8 9 11 11 16 16 15 12 17 18 21 20 20 23 21 18 20 22 23
22 21 19 18 18 17 16 15 11 9 4 4 4 4 8 8 13 24 26 20 18 11 6 6 6 8 8 11 16 16 15 17 16 20 22 22 20 20 19 22 22 23 21 22
21 21 20 19 18 17 15 14 13 14 8 4 6 18 21 19 18 18 20 21 13 8 5 6 9 10 9 11 15 16 16 17 13 15 19 17 20 20 23 23 22 20 19 21
22 21 20 19 19 17 11 2 16 18 10 3 4 4 8 11 8 11 18 16 7 6 5 6 8 18 10 5 11 19 18 17 16 17 18 19 20 22 22 19 19 21 20 21
21 19 17 16 17 17 5 1 4 13 13 2 4 3 3 3 5 1 3 9 3 4 2 6 11 11 3 6 16 27 19 20 18 16 13 17 18 16 19 20 20 20 20 20
20 16 15 14 12 9 10 8 6 11 4 4 3 4 4 9 4 3 3 4 3 5 4 3 7 7 5 7 17 16 15 15 13 11 12 14 17 18 17 19 18 20 18 17
21 19 18 14 8 7 8 13 16 9 5 3 4 5 1 4 3 4 5 3 5 5 7 7 5 6 7 12 14 13 13 10 13 14 13 15 15 17 17 18 19 19 18 18
24 23 7 3 8 12 13 7 5 5 5 4 5 9 7 4 6 5 4 4 4 4 8 5 5 12 19 19 17 11 8 9 10 12 14 14 15 16 18 18 16 16 16 14
16 6 3 11 17 11 4 4 6 6 4 5 7 12 10 5 5 4 3 3 3 3 4 4 4 6 5 3 2 3 5 7 8 9 9 11 13 15 17 17 16 14 15 11
12 11 14 10 5 4 5 6 5 7 6 7 8 6 8 4 4 5 4 4 3 6 4 3 4 1 2 2 3 4 6 8 9 10 11 12 13 13 15 15 15 14 16 14
14 4 5 4 5 8 6 9 6 5 6 5 6 6 5 4 5 4 4 5 6 2 3 4 6 4 4 5 4 4 4 6 9 10 11 13 14 17 15 14 17 17 13 10
4 6 7 6 6 6 7 8 5 2 4 9 9 7 6 4 7 5 5 5 4 4 4 9 3 5 4 3 4 5 7 8 10 13 11 9 10 9 14 15 17 14 8 10
4 5 6 8 6 3 2 5 1 2 1 5 5 5 6 6 4 5 5 4 5 6 6 2 3 6 7 7 7 7 7 4 6 9 9 6 10 9 10 14 15 14 11 8
3 5 5 3 4 6 5 4 6 4 3 3 4 4 3 5 4 6 7 5 7 5 4 4 4 6 7 8 8 8 8 8 9 10 10 12 5 7 10 12 12 14 13 8
5 4 4 4 1 1 4 6 5 3 4 6 3 4 8 4 4 8 5 6 6 5 4 4 6 9 10 10 9 6 6 9 9 12 11 12 13 12 9 7 10 11 11 10
Wind_Direction
245 233 234 250 262 304 276 278 303 33 324 174 341 218 314 0 281 268 285 291 319 337 329 336 358 358 22 7 346 349 343 316 307 328 309 336 82 52 54 312 356 238 252 254
241 231 236 247 245 226 301 284 281 122 279 220 214 280 352 275 276 288 300 299 321 309 320 344 336 334 30 340 339 352 329 317 307 205 185 72 68 123 144 167 197 252 280 204
236 222 224 226 225 210 258 102 201 326 325 245 267 206 255 241 245 275 270 282 283 290 336 320 309 311 356 333 331 357 291 301 301 302 309 287 297 301 203 160 249 270 251 270
224 221 209 205 210 193 255 353 232 165 166 234 249 222 230 268 258 241 266 283 268 299 292 292 294 320 317 322 102 263 358 285 306 313 315 311 299 292 288 281 266 253 268 276
220 217 211 204 201 189 247 154 203 202 279 230 240 155 270 246 262 223 272 266 287 295 293 304 305 313 312 314 302 315 336 286 316 301 288 278 279 288 292 280 274 274 276 274
219 217 212 207 201 185 201 271 230 280 253 236 242 234 232 248 262 298 285 294 302 296 294 308 310 302 293 283 283 283 285 278 293 283 297 323 293 268 267 259 259 266 273 281
214 218 213 208 206 204 288 225 269 189 258 225 236 243 252 260 261 278 283 287 283 289 305 300 292 294 283 277 268 262 260 261 276 282 292 268 263 304 295 276 273 281 287 280
209 213 212 211 209 205 244 207 230 224 258 262 255 253 257 269 261 251 261 283 311 330 295 288 301 270 245 250 258 272 245 240 253 258 264 279 286 284 354 321 310 304 283 281
212 212 214 210 210 202 212 220 205 229 260 250 268 267 256 272 280 282 275 272 227 274 279 277 267 291 309 281 255 238 272 239 248 267 285 281 291 339 352 307 298 317 286 285
212 213 212 212 210 208 212 215 214 227 219 266 272 260 263 279 284 288 292 277 284 252 242 248 263 278 291 281 285 215 214 240 244 251 256 267 280 304 312 261 292 335 319 312
207 213 218 218 214 216 215 229 215 220 249 269 274 266 264 262 250 252 256 334 227 223 251 260 270 258 269 272 274 282 286 276 267 262 257 264 321 339 336 315 307 308 309 306
204 201 206 215 220 223 215 239 235 240 239 258 272 271 262 256 250 256 239 242 258 198 259 278 294 280 297 281 284 280 274 271 271 274 274 298 300 299 295 299 305 304 299 297
203 202 201 201 204 209 206 219 216 224 277 279 251 248 252 241 241 244 250 241 242 264 281 295 275 262 273 275 282 295 291 292 287 279 273 279 285 295 295 293 298 300 301 299
200 196 196 199 199 199 200 214 214 224 279 278 300 278 261 241 239 228 233 245 260 271 271 260 260 252 265 273 291 290 289 297 289 288 289 288 287 287 297 299 302 299 297 300
198 196 195 196 196 197 200 214 218 214 225 299 300 296 274 259 253 231 224 225 231 249 241 235 249 257 269 265 273 271 270 270 272 275 283 287 286 292 289 294 301 305 308 303
192 195 197 199 199 196 204 228 228 219 219 273 288 345 271 261 229 221 225 227 221 223 226 248 256 256 264 275 270 278 284 284 280 283 292 287 288 292 302 304 308 307 304 302
183 177 171 174 180 182 197 19 86 173 159 228 277 267 187 198 157 184 191 190 181 216 239 238 257 267 225 259 270 279 292 298 285 287 307 306 298 302 311 302 299 316 304 299
178 179 176 171 174 211 230 209 133 158 154 232 258 265 250 168 156 176 184 161 173 202 232 252 249 256 223 246 255 270 278 294 293 312 305 310 304 299 317 320 313 308 304 306
161 156 149 143 180 187 216 208 196 195 243 251 219 237 209 155 199 192 187 171 204 213 215 224 223 222 225 242 260 282 297 323 326 323 316 311 325 317 312 319 313 309 306 307
150 147 170 172 178 138 126 127 171 197 208 221 246 242 238 186 188 206 210 184 239 241 212 205 216 246 252 258 270 288 342 325 331 317 322 327 318 319 323 319 313 308 306 308
162 169 155 111 144 160 200 177 194 190 227 218 228 228 235 214 231 251 257 238 239 249 217 210 234 253 240 201 267 338 328 324 324 313 319 303 302 324 321 320 318 314 317 312
167 126 122 141 186 196 201 199 197 194 227 172 191 197 203 202 180 229 221 241 236 249 141 227 256 276 192 99 26 343 337 326 315 326 315 311 324 327 329 323 321 321 312 307
132 168 160 186 165 218 213 197 202 199 194 175 152 158 155 150 194 212 235 226 239 222 218 230 244 164 183 83 37 352 322 314 310 311 318 315 330 331 329 324 326 318 313 323
183 169 171 213 183 229 209 227 227 50 165 173 173 163 186 184 186 232 233 228 257 239 226 242 88 82 36 37 13 316 340 347 329 317 318 319 319 317 323 332 333 329 332 342
183 194 213 210 231 231 274 279 275 146 147 185 182 211 200 200 222 213 235 215 237 225 254 44 51 37 21 359 338 337 326 305 319 307 316 305 311 320 326 342 347 347 343 359
244 225 224 226 223 210 221 232 239 180 188 203 231 258 200 235 233 218 216 244 248 287 68 79 30 12 3 349 350 339 333 320 317 316 315 302 317 314 313 330 354 358 356 359
218 208 231 259 289 327 190 216 208 148 212 220 212 211 223 229 236 233 265 286 18 48 44 25 357 349 344 338 331 327 287 315 312 306 311 303 305 307 305 334 345 352 356 356